Back to catalog

STARLINK-31657

AliveCommunicationsVLEO
NORAD 59487·PAYLOAD·🇺🇸 United States

Launched Apr 13, 2024 from Cape Canaveral Space Force Station

Loading…

Next Passes (next 24 hours)

TLE

FreshSource: CelesTrak SupGP

Epoch: Sep 14, 2026, 21:50 UTC

1 59487C 24071D   26257.91020833 -.00009880  00000+0 -35795-3 0  2570
2 59487  43.0031 351.0386 0001714 268.1632 158.3823 15.27573743    18

Track STARLINK-31657 in real time with AllMySat

Download on the App Store